Volver al catálogo

NOAA 17 DEB

ActivoPO
NORAD 48765·DEBRIS·🇺🇸 United States

Lanzado Jun 24, 2002 desde Vandenberg Space Force Base

Loading…

Próximos Pases (próximas 24 horas)

TLE

ActualizadoSource: Space-Track

Época: Sep 14, 2026, 01:09 UTC

1 48765U 02032DA  26257.04839046  .00018855  00000-0  18761-2 0  9995
2 48765  98.6882 294.7582 0008202  25.3863 334.7754 14.91681844286880

Sigue NOAA 17 DEB en tiempo real con AllMySat

Download on the App Store